When you browse on this site, cookies collect data to enhance your experience and personalize the content and advertising you see.
Visit our Privacy Policy to learn more. By continuing to use the site, you agree to this use of cookies and data.
  • In Hungary
  • List of Countries
  • For 7 days
  • Water Temperature
  • Weather Map
  • News
  • Weather Widgets
  • user-avatar
    Login

    Hourly Weather Jumri Tilaiya

    Today, 12 November, Tuesday

    Time Temperature Precipitation Wind Pressure Humidity
    00:00 +19°C° 0 mm 2 mps 726 mmHg 58%
    01:00 +19°C° 0 mm 2 mps 726 mmHg 58%
    02:00 +19°C° 0 mm 2 mps 725 mmHg 58%
    03:00 +18°C° 0 mm 2 mps 725 mmHg 58%
    04:00 +18°C° 0 mm 2 mps 725 mmHg 58%
    05:00 +18°C° 0 mm 2 mps 726 mmHg 59%
    06:00 +18°C° 0 mm 1 mps 726 mmHg 71%
    07:00 +19°C° 0 mm 2 mps 727 mmHg 67%
    08:00 +21°C° 0 mm 2 mps 727 mmHg 63%
    09:00 +24°C° 0 mm 2 mps 728 mmHg 59%
    10:00 +26°C° 0 mm 2 mps 728 mmHg 54%
    11:00 +27°C° 0 mm 3 mps 728 mmHg 50%
    12:00 +28°C° 0 mm 3 mps 728 mmHg 43%
    13:00 +28°C° 0 mm 3 mps 727 mmHg 42%
    14:00 +28°C° 0 mm 3 mps 727 mmHg 42%
    15:00 +29°C° 0 mm 3 mps 726 mmHg 41%
    16:00 +27°C° 0 mm 2 mps 726 mmHg 45%
    17:00 +25°C° 0 mm 2 mps 726 mmHg 50%
    18:00 +23°C° 0 mm 1 mps 726 mmHg 54%
    19:00 +23°C° 0 mm 1 mps 726 mmHg 56%
    20:00 +22°C° 0 mm 1 mps 727 mmHg 57%
    21:00 +21°C° 0 mm 1 mps 727 mmHg 59%
    22:00 +21°C° 0 mm 1 mps 727 mmHg 60%
    23:00 +21°C° 0 mm 1 mps 727 mmHg 61%

    Tomorrow, 13 November, Wednesday

    Time Temperature Precipitation Wind Pressure Humidity
    00:00 +20°C° 0 mm 1 mps 727 mmHg 62%
    01:00 +20°C° 0 mm 1 mps 727 mmHg 63%
    02:00 +20°C° 0 mm 1 mps 727 mmHg 63%
    03:00 +19°C° 0 mm 1 mps 726 mmHg 64%
    04:00 +19°C° 0 mm 1 mps 726 mmHg 64%
    05:00 +19°C° 0 mm 1 mps 727 mmHg 65%
    06:00 +19°C° 0 mm 1 mps 727 mmHg 65%
    07:00 +21°C° 0 mm 1 mps 727 mmHg 60%
    08:00 +22°C° 0 mm 1 mps 728 mmHg 56%
    09:00 +24°C° 0 mm 1 mps 729 mmHg 51%
    10:00 +26°C° 0 mm 2 mps 729 mmHg 46%
    11:00 +27°C° 0 mm 2 mps 729 mmHg 40%
    12:00 +28°C° 0 mm 3 mps 729 mmHg 35%
    13:00 +29°C° 0 mm 3 mps 728 mmHg 36%
    14:00 +29°C° 0 mm 3 mps 727 mmHg 37%
    15:00 +29°C° 0 mm 3 mps 727 mmHg 38%
    16:00 +27°C° 0 mm 2 mps 727 mmHg 42%
    17:00 +25°C° 0 mm 2 mps 727 mmHg 46%
    18:00 +23°C° 0 mm 1 mps 727 mmHg 50%
    19:00 +22°C° 0 mm 1 mps 727 mmHg 50%
    20:00 +22°C° 0 mm 1 mps 728 mmHg 51%
    21:00 +19°C° 0 mm 0 mps 728 mmHg 51%
    22:00 +19°C° 0 mm 0 mps 728 mmHg 52%
    23:00 +18°C° 0 mm 0 mps 728 mmHg 52%

    Day after tomorrow, 14 November, Thursday

    Time Temperature Precipitation Wind Pressure Humidity
    00:00 +20°C° 0 mm 1 mps 728 mmHg 52%
    01:00 +20°C° 0 mm 1 mps 727 mmHg 53%
    02:00 +17°C° 0 mm 0 mps 727 mmHg 54%
    03:00 +17°C° 0 mm 0 mps 727 mmHg 55%
    04:00 +17°C° 0 mm 0 mps 727 mmHg 55%
    05:00 +17°C° 0 mm 0 mps 727 mmHg 55%
    06:00 +16°C° 0 mm 0 mps 727 mmHg 56%
    07:00 +18°C° 0 mm 0 mps 728 mmHg 53%
    08:00 +20°C° 0 mm 0 mps 729 mmHg 50%
    09:00 +22°C° 0 mm 0 mps 729 mmHg 46%
    10:00 +24°C° 0 mm 0 mps 729 mmHg 43%
    11:00 +27°C° 0 mm 1 mps 729 mmHg 40%
    12:00 +28°C° 0 mm 1 mps 729 mmHg 37%
    13:00 +29°C° 0 mm 1 mps 728 mmHg 37%
    14:00 +29°C° 0 mm 2 mps 728 mmHg 36%
    15:00 +29°C° 0 mm 2 mps 727 mmHg 36%
    16:00 +27°C° 0 mm 1 mps 727 mmHg 42%
    17:00 +25°C° 0 mm 1 mps 727 mmHg 47%
    18:00 +23°C° 0 mm 1 mps 726 mmHg 53%
    19:00 +23°C° 0 mm 1 mps 727 mmHg 54%
    20:00 +20°C° 0 mm 0 mps 727 mmHg 54%
    21:00 +19°C° 0 mm 0 mps 727 mmHg 55%
    22:00 +19°C° 0 mm 0 mps 727 mmHg 56%
    23:00 +19°C° 0 mm 0 mps 727 mmHg 57%

    15 November, Friday

    Time Temperature Precipitation Wind Pressure Humidity
    00:00 +18°C° 0 mm 0 mps 727 mmHg 58%
    01:00 +20°C° 0 mm 1 mps 727 mmHg 59%
    02:00 +20°C° 0 mm 1 mps 726 mmHg 60%
    03:00 +19°C° 0 mm 1 mps 726 mmHg 61%
    04:00 +19°C° 0 mm 1 mps 726 mmHg 62%
    05:00 +19°C° 0 mm 1 mps 726 mmHg 63%
    06:00 +19°C° 0 mm 1 mps 726 mmHg 63%
    07:00 +21°C° 0 mm 1 mps 727 mmHg 59%
    08:00 +23°C° 0 mm 1 mps 727 mmHg 55%
    09:00 +23°C° 0 mm 0 mps 728 mmHg 50%
    10:00 +26°C° 0 mm 1 mps 728 mmHg 47%
    11:00 +27°C° 0 mm 1 mps 728 mmHg 43%
    12:00 +29°C° 0 mm 1 mps 728 mmHg 40%
    13:00 +29°C° 0 mm 1 mps 727 mmHg 38%
    14:00 +29°C° 0 mm 1 mps 726 mmHg 37%
    15:00 +30°C° 0 mm 1 mps 726 mmHg 36%
    16:00 +28°C° 0 mm 1 mps 725 mmHg 41%
    17:00 +26°C° 0 mm 1 mps 725 mmHg 47%
    18:00 +24°C° 0 mm 1 mps 725 mmHg 52%
    19:00 +23°C° 0 mm 1 mps 726 mmHg 53%
    20:00 +22°C° 0 mm 1 mps 726 mmHg 53%
    21:00 +22°C° 0 mm 1 mps 726 mmHg 53%
    22:00 +21°C° 0 mm 1 mps 726 mmHg 53%
    23:00 +21°C° 0 mm 1 mps 726 mmHg 54%

    16 November, Saturday

    Time Temperature Precipitation Wind Pressure Humidity
    00:00 +20°C° 0 mm 1 mps 726 mmHg 54%
    01:00 +20°C° 0 mm 1 mps 726 mmHg 54%
    02:00 +20°C° 0 mm 1 mps 725 mmHg 55%
    03:00 +19°C° 0 mm 1 mps 725 mmHg 55%
    04:00 +19°C° 0 mm 1 mps 725 mmHg 55%
    05:00 +19°C° 0 mm 1 mps 725 mmHg 56%
    06:00 +19°C° 0 mm 1 mps 725 mmHg 56%
    07:00 +21°C° 0 mm 1 mps 726 mmHg 53%
    08:00 +23°C° 0 mm 1 mps 727 mmHg 49%
    09:00 +25°C° 0 mm 1 mps 728 mmHg 46%
    10:00 +26°C° 0 mm 1 mps 727 mmHg 41%
    11:00 +27°C° 0 mm 2 mps 727 mmHg 37%
    12:00 +29°C° 0 mm 2 mps 727 mmHg 33%
    13:00 +29°C° 0 mm 2 mps 727 mmHg 33%
    14:00 +29°C° 0 mm 2 mps 726 mmHg 34%
    15:00 +29°C° 0 mm 3 mps 725 mmHg 34%
    16:00 +27°C° 0 mm 2 mps 725 mmHg 39%
    17:00 +25°C° 0 mm 2 mps 725 mmHg 43%
    18:00 +23°C° 0 mm 1 mps 725 mmHg 47%
    19:00 +23°C° 0 mm 1 mps 725 mmHg 49%
    20:00 +22°C° 0 mm 1 mps 726 mmHg 50%
    21:00 +21°C° 0 mm 1 mps 726 mmHg 52%
    22:00 +21°C° 0 mm 1 mps 726 mmHg 53%
    23:00 +21°C° 0 mm 1 mps 726 mmHg 54%

    17 November, Sunday

    Time Temperature Precipitation Wind Pressure Humidity
    00:00 +20°C° 0 mm 1 mps 726 mmHg 54%
    01:00 +20°C° 0 mm 1 mps 726 mmHg 55%
    02:00 +20°C° 0 mm 1 mps 725 mmHg 56%
    03:00 +20°C° 0 mm 1 mps 725 mmHg 56%
    04:00 +19°C° 0 mm 1 mps 725 mmHg 56%
    05:00 +19°C° 0 mm 1 mps 725 mmHg 56%
    06:00 +19°C° 0 mm 1 mps 725 mmHg 57%
    07:00 +21°C° 0 mm 1 mps 726 mmHg 53%
    08:00 +23°C° 0 mm 1 mps 727 mmHg 50%
    09:00 +25°C° 0 mm 1 mps 728 mmHg 46%
    10:00 +26°C° 0 mm 2 mps 727 mmHg 42%
    11:00 +27°C° 0 mm 2 mps 727 mmHg 39%
    12:00 +29°C° 0 mm 3 mps 727 mmHg 35%
    13:00 +29°C° 0 mm 3 mps 726 mmHg 36%
    14:00 +29°C° 0 mm 3 mps 726 mmHg 36%
    15:00 +29°C° 0 mm 3 mps 725 mmHg 37%
    16:00 +27°C° 0 mm 3 mps 725 mmHg 42%
    17:00 +25°C° 0 mm 2 mps 725 mmHg 46%
    18:00 +23°C° 0 mm 1 mps 725 mmHg 51%
    19:00 +23°C° 0 mm 1 mps 725 mmHg 52%
    20:00 +22°C° 0 mm 1 mps 726 mmHg 54%
    21:00 +21°C° 0 mm 1 mps 726 mmHg 55%
    22:00 +21°C° 0 mm 1 mps 726 mmHg 56%
    23:00 +21°C° 0 mm 1 mps 726 mmHg 57%
    Show more